FENGYUN 1C DEB, 30641

Orbit data source: Space-Track

FENGYUN 1C DEB, 30641 is space debris in SSO originally from a launch on Mon, 10 May 1999 UTC launched from the Taiyaun Space Center, China (TSC). Fengyun 1C debris stems from the Chinese weather satellite Fengyun-1C, which was intentionally destroyed by a Chinese anti-satellite missile in 2007. This event dramatically increased the amount of space debris, with thousands of trackable fragments posing hazards to satellites and human spaceflight. The Fengyun 1C debris cloud has become a focal point in discussions about space sustainability and the need for international regulations to prevent the creation of new debris.

Loading next visibility...
Identifier
30641, 1999-025ANY
Orbit
SSO
Country
Flag of CNCN / PRC
Related business
Manufacturer
Unknown
Mission
Spacecraft
Bus & Motor
Unknown
Mass
Unknown
Launch date (UTC)
1999-05-10 (27 years ago)
Launch vehicle
Unknown
Launch site
Taiyaun Space Center, China (TSC)
Object type
Payload
Rocket body
Debris
Shape & HBR
Unknown shape, 0.1 m
Radar Cross Section
Small (<0.1 m²)

Expand to show TLE details & history
Last TLE update: 9 hours ago

TLE from 9 hours ago
0 FENGYUN 1C DEB
1 30641U 99025ANY 26062.41937034  .00005600  00000-0  64445-3 0  9993
2 30641  98.9509  10.8815 0131405 232.6487 252.9800 14.80164139 17253
Epoch: 2026-03-03T10:03Z
TLE epoch observation values (Epoch: 2026-03-03T10:03:53.597Z)
Latitude
54.89335°
Longitude
-108.41434°
Altitude
665.926 km
Speed
7.514 km/s
True Right ascension
13h 35m 01s
True Declination
54° 43' 45"
Sunlit
Object was in full shadow at epoch
Visualization orbit readout
Latitude
Unknown
Longitude
Unknown
Altitude
Unknown
Speed
Unknown
Apparent Right ascension
Unknown
Apparent Declination
Unknown
Sunlit
N/A
Visualization observer readout
Local Sidereal Time
22:56:38
Azimuth
Unknown
Elevation
Unknown
Doppler factor
Unknown
Orbital elements
Apogee altitude
717.933 km
Perigee altitude
533.86 km
Semi-major axis
7,004.033 km
Eccentricity
0.01314
Inclination
98.9509°
RAAN
10.8815°
Arg. of periapsis
232.6487°
True anomaly
251.5472°
Mean anomaly
252.98°
Eccentric anomaly
252.26289°
Mean motion
3.70272 °/min
Orbital period
97.23 mins
BSTAR
0.00064445
Loading maneuver chart data...
Computing Atmospheric mass density...

Documentation

Showing up to 5 results
|